Location: Alto Pass Reservoir
(37.5801°N, 89.3084°W)
Time: 04:02:28
(UTC+00:00)

Cosmos 1666 - Pass Details

Date: 30 June 2022
Orbit: 490 x 510 km, 82.5° (Epoch: 16 August)

Event Time Altitude Azimuth Distance (km) Brightness Sun altitude
Exits shadow 09:49:01 - 200° (SSW) 1,834 5.0 -9.0°
Reaches altitude 10° 09:49:18 10° 201° (SSW) 1,714 4.8 -9.0°
Maximum altitude 09:52:58 52° 279° (W) 633 2.9 -8.4°
Drops below altitude 10° 09:56:39 10° 357° (N) 1,715 5.8 -7.8°
Sets 09:58:49 0° 2° (N) 2,599 6.9 -7.5°
